Regional Weather Roundup
Issued by NWS

Home | Current Version | Previous Version | Text Only | Print | Product List | Glossary Off
Versions: 1 2 3 4 5 6 7 8 9 10 11 12 13 14 15 16 17 18 19 20 21 22 23 24 25 26 27 28 29 30 31 32 33 34 35 36 37 38 39 40 41 42 43 44 45 46 47 48 49 50

000
ASUS43 KDTX 260301
RWRMI
MICHIGAN HOURLY REGIONAL WEATHER ROUNDUP
NATIONAL WEATHER SERVICE DETROIT/PONTIAC MI
1100 PM EDT THU MAY 25 2017

NOTE: "FAIR" INDICATES FEW OR NO CLOUDS BELOW 12,000 FEET WITH NO
SIGNIFICANT WEATHER AND/OR OBSTRUCTION TO VISIBILITY.

MIZ047>049-052>055-059>063-066>070-074>076-081>083-260400-
SOUTHEAST LOWER MICHIGAN

CITY           SKY/WX    TMP DP  RH WIND       PRES   REMARKS
ADRIAN         CLOUDY    59  56  89 NW5       29.65R
ALMA           CLOUDY    57  55  92 NW6       29.67R
ANN ARBOR      CLOUDY    59  57  93 NW7       29.62R
BAD AXE        DRIZZLE   51  51  99 N8        29.63R
CARO           CLOUDY    53  52  97 N9        29.63R FOG
DETROIT CITY   CLOUDY    57  56  96 NW6       29.61R
DETROIT        CLOUDY    59  55  87 NW9       29.62R
FLINT          CLOUDY    54  53  97 N9        29.64R
GROSSE ILE     CLOUDY    59  56  89 NW6       29.61R
HILLSDALE      CLOUDY    57  55  94 W6        29.66R
HOWELL         DRIZZLE   56  54  91 N7        29.64R

CITY           SKY/WX    TMP DP  RH WIND       PRES   REMARKS
JACKSON        CLOUDY    59  55  87 NW6       29.65R
LAMBERTVILLE   CLOUDY    59  56  90 W5        29.63R
LANSING        CLOUDY    59  53  80 NW6       29.66R
LAPEER         CLOUDY    55  54  98 NW5       29.63R FOG
MASON          CLOUDY    57  55  94 NW5       29.66R
MONROE         CLOUDY    60  57  91 NW3       29.61R
MT. CLEMENS    DRIZZLE   57  57 100 NW9       29.59R FOG
PONTIAC        DRIZZLE   55  53  93 NW10      29.61R
PORT HOPE        N/A     49  48  97 VRB3      29.61R
PORT HURON     LGT RAIN  54  52  94 N3        29.60R
TRI CITIES     CLOUDY    55  55 100 N12       29.66R
MIDLAND        CLOUDY    56  53  91 N3        29.65R
TROY           CLOUDY    57  54  90 NW7       29.63R
SAGINAW HB     CLOUDY    54  52  94 N6        29.65R
$$
MIZ043>046-050>051-056>058-064>065-071>073-077>080-260400-
SOUTHWEST LOWER MICHIGAN

CITY           SKY/WX    TMP DP  RH WIND       PRES   REMARKS
BATTLE CREEK   PTCLDY    58  55  90 W8        29.67R
BENTON HARBOR  CLOUDY    52  49  89 W5        29.72R
BIG RAPIDS     CLOUDY    57  52  81 N5        29.69R
COLDWATER      CLOUDY    59  56  91 W7        29.67R
FREMONT        FAIR      55  51  86 N3        29.68R
HOLLAND        CLEAR     53  50  89 W6        29.70R
GRAND RAPIDS   CLOUDY    61  54  77 NW5       29.67R
IONIA          CLOUDY    59  53  80 NW3       29.66R
KALAMAZOO      CLOUDY    57  51  80 W8        29.69R
LUDINGTON      CLEAR     52  51  96 N6        29.70R
MARSHALL       CLOUDY    58  58  99 CALM      29.66R
MOUNT PLEASANT CLOUDY    57  51  82 N5        29.66R
MUSKEGON       CLEAR     59  53  80 NW7       29.70R
SOUTH HAVEN    CLEAR     51  50  96 NW3       29.71R
$$
MIZ016>042-260400-
NORTHERN LOWER MICHIGAN

CITY           SKY/WX    TMP DP  RH WIND       PRES   REMARKS
ALPENA         LGT RAIN  54  54 100 N9        29.68R FOG
BEAVER ISLAND  CLOUDY    55  54  97 CALM      29.75R
BELLAIRE       CLOUDY    56  51  84 CALM      29.72R
CADILLAC       CLOUDY    55  51  86 NE9       29.70R
CHARLEVOIX     CLOUDY    50  50 100 CALM      29.76R
FRANKFORT      CLEAR     54  50  86 NE3       29.72R
GAYLORD        CLOUDY    54  50  86 NE9       29.71R
GRAYLING       CLOUDY    53  51  92 N5        29.71R
HARBOR SPRINGS CLOUDY    54  54 100 CALM      29.72R
HOUGHTON LAKE  CLOUDY    54  50  86 N7        29.69R
MANISTEE       CLEAR     56  52  86 NW5       29.71R
OSCODA         CLOUDY    54  53  95 N10G16    29.65R
PELLSTON       CLOUDY    55  52  89 N5        29.73R
ROGERS CITY    CLOUDY    49  49  98 N5        29.71R
TRAVERSE CITY  CLOUDY    56  51  84 N5        29.71R
$$
MIZ007>008-015-260400-
EASTERN UPPER MICHIGAN

CITY           SKY/WX    TMP DP  RH WIND       PRES   REMARKS
KINROSS        CLOUDY    56  54  93 NE7       29.75R
MACKINAC ISLAN CLOUDY    54  54 100 NE7       29.74R
NEWBERRY       MOCLDY    53  52  97 N3        29.76R
S. S. MARIE    CLOUDY    57  53  86 CALM      29.74R
MUNISING         N/A     46  43  89 CALM      29.78R
$$
MIZ004>006-011>014-085-260400-
CENTRAL UPPER MICHIGAN

CITY           SKY/WX    TMP DP  RH WIND       PRES   REMARKS
MANISTIQUE     CLOUDY    57  53  85 CALM      29.75R
ESCANABA       MOCLDY    55  52  89 NW5       29.77R
MENOMINEE      CLEAR     52  50  93 CALM      29.77R
SAWYER-GWINN   CLEAR     47  45  90 N6        29.79R
$$
MIZ001>003-009>011-084-260400-
WESTERN UPPER MICHIGAN

CITY           SKY/WX    TMP DP  RH WIND       PRES   REMARKS
IRON MOUNTAIN  CLEAR     57  49  74 E3        29.76R
HOUGHTON       CLEAR     50  45  83 E3        29.77R
COPPER HARBOR    N/A     51  48  89 CALM      29.76R
IRONWOOD       CLEAR     56  47  71 E7        29.73R
$$

ABBREVIATIONS USED IN REMARKS
   TC - TEMPERATURE IN CELSIUS
  WCI - WIND CHILL INDEX
   HX - HEAT INDEX
  VSB - VISIBILITY





USA.gov is the U.S. government's official web portal to all federal, state and local government web resources and services.